CW2026 Weather Reports


time (UTC)temp
C
wind
direction
speed
KPH
gust
KPH
rain 1hr
cm
rain 24hr
cm
rain mn
cm
humidity
%
barometer
mb
20260507232936 10 184 4.8 16.1 0.03 0.20 0.08 96 1003.2
20260507225319 11 213 6.4 27.4 0.05 0.18 0.05 96 1003.3
20260507215934 11 175 11.3 25.7 0.08 0.23 0.05 96 1003.2
20260507211127 11 223 9.7 27.4 0.10 0.23 0.05 96 1003.4
20260507202926 11 178 9.7 22.5 0.10 0.23 0.05 96 1003.7
20260507194230 11 179 9.7 30.6 0.08 0.18 0.00 96 1003.9
20260507190052 11 180 11.3 33.8 0.05 0.15 0.15 96 1004.4
20260507182203 11 185 11.3 27.4 0.03 0.13 0.13 96 1004.1
20260507173356 11 179 6.4 30.6 0.05 0.13 0.13 95 1004.5
20260507165032 11 190 8.0 24.1 0.03 0.10 0.10 95 1004.8
20260507160711 11 173 6.4 25.7 0.03 0.10 0.10 95 1005.4
20260507152606 11 175 4.8 24.1 0.03 0.10 0.10 95 1005.7
20260507144236 11 186 16.1 35.4 0.00 0.08 0.08 94 1006.2
20260507140040 11 195 14.5 29.0 0.00 0.08 0.08 94 1006.4
20260507132019 11 207 9.7 37.0 0.00 0.08 0.08 94 1006.6
20260507124031 11 207 8.0 30.6 0.00 0.08 0.08 94 1006.9
20260507115713 11 200 12.9 30.6 0.00 0.08 0.08 94 1007.2
20260507111949 11 195 11.3 37.0 0.00 0.08 0.08 93 1007.5
20260507103855 11 167 11.3 32.2 0.00 0.08 0.08 93 1007.7
20260507095627 11 179 8.0 32.2 0.03 0.08 0.08 94 1007.5